DW0841 Weather Reports


Display with metric or nautical units.
time (UTC)temp
F
wind
direction
speed
MPH
gust
MPH
rain 1hr
in
rain 24hr
in
rain mn
in
humidity
%
barometer
mb
20260831063617 63 113 1.0 1.0 0.00 0.00 0.00 56 1019.5
20260831062617 64 0.0 0.0 0.00 0.00 0.00 52 1019.4
20260831061617 65 0.0 1.0 0.00 0.00 0.00 52 1019.6
20260831060617 65 0.0 1.0 0.00 0.00 0.00 53 1019.7
20260831055657 66 0.0 1.0 0.00 0.00 0.00 53 1019.8
20260831054616 65 90 1.0 3.0 0.00 0.00 0.00 56 1019.8
20260831053617 65 0.0 1.0 0.00 0.00 0.00 50 1019.9
20260831052637 66 135 2.0 4.0 0.00 0.00 0.00 53 1019.9
20260831051617 65 0 2.0 5.0 0.00 0.00 0.00 50 1019.8
20260831050637 66 135 2.0 5.0 0.00 0.00 0.00 49 1020.1
20260831045617 67 0.0 1.0 0.00 0.00 0.00 50 1020.2
20260831044657 67 68 1.0 3.0 0.00 0.00 0.00 47 1020.2
20260831043617 68 0.0 2.0 0.00 0.00 0.00 47 1020.1
20260831042617 68 113 1.0 2.0 0.00 0.00 0.00 49 1020.2
20260831041616 67 0.0 1.0 0.00 0.00 0.00 52 1020.4
20260831040617 67 270 1.0 3.0 0.00 0.00 0.00 50 1020.5
20260831035617 67 113 3.0 4.0 0.00 0.00 0.00 50 1020.4
20260831034616 66 135 3.0 5.0 0.00 0.00 0.00 51 1020.8
20260831033617 67 113 2.0 3.0 0.00 0.00 0.00 49 1020.8
20260831032616 66 113 3.0 5.0 0.00 0.00 0.00 50 1020.8
20260831031617 67 113 2.0 6.0 0.00 0.00 0.00 51 1021.0
20260831030637 66 90 4.0 6.0 0.00 0.00 0.00 52 1021.1
20260831025616 66 135 2.0 3.0 0.00 0.00 0.00 53 1021.3
20260831024617 65 68 3.0 6.0 0.00 0.00 0.00 53 1021.5
20260831023616 66 113 6.0 9.0 0.00 0.00 0.00 51 1021.6
20260831022657 66 135 1.0 2.0 0.00 0.00 0.00 51 1021.7
20260831021657 65 158 2.0 4.0 0.00 0.00 0.00 53 1021.9
20260831020616 64 135 1.0 2.0 0.00 0.00 0.00 54 1022.1
20260831015616 63 68 2.0 3.0 0.00 0.00 0.00 54 1022.4
20260831014616 62 68 2.0 3.0 0.00 0.00 0.00 55 1022.6
20260831013616 61 113 1.0 3.0 0.00 0.00 0.00 59 1022.5
20260831012617 61 68 2.0 4.0 0.00 0.00 0.00 61 1022.9
20260831011637 60 0.0 1.0 0.00 0.00 0.00 56 1023.1
20260831010616 60 113 2.0 4.0 0.00 0.00 0.00 60 1023.1
20260831005616 59 90 1.0 3.0 0.00 0.00 0.00 60 1023.1
20260831004636 59 90 1.0 2.0 0.00 0.00 0.00 60 1023.3
20260831003617 59 0.0 2.0 0.00 0.00 0.00 58 1023.2
20260831002616 58 113 1.0 2.0 0.00 0.00 0.00 60 1023.3
20260831001616 58 113 1.0 2.0 0.00 0.00 0.00 63 1023.4
20260831000637 58 0.0 2.0 0.00 0.00 0.00 65 1023.4
20260830235657 57 0.0 0.0 0.00 0.00 0.00 65 1023.4
20260830234616 56 0.0 1.0 0.00 0.00 0.00 69 1023.6
20260830233637 56 90 1.0 4.0 0.00 0.00 0.00 69 1023.7
20260830232616 55 68 2.0 3.0 0.00 0.00 0.00 73 1023.7
20260830231616 53 135 1.0 4.0 0.00 0.00 0.00 79 1023.6
20260830230616 52 113 1.0 2.0 0.00 0.00 0.00 83 1023.6
20260830225616 50 0 2.0 3.0 0.00 0.00 0.00 83 1023.7
20260830224617 49 45 2.0 4.0 0.00 0.00 0.00 86 1023.8
20260830223637 48 0.0 0.0 0.00 0.00 0.00 86 1023.9
20260830222616 47 0.0 1.0 0.00 0.00 0.00 86 1023.9
20260830221616 46 68 2.0 3.0 0.00 0.00 0.00 85 1024.0
20260830220616 46 0.0 1.0 0.00 0.00 0.00 85 1023.9
20260830215617 46 0.0 1.0 0.00 0.00 0.00 86 1023.6
20260830214616 45 338 2.0 3.0 0.00 0.00 0.00 87 1023.6
20260830213652 44 0 1.0 2.0 0.00 0.00 0.00 87 1023.3
20260830212616 44 45 1.0 2.0 0.00 0.00 0.00 86 1023.4
20260830211616 44 270 1.0 2.0 0.00 0.00 0.00 85 1023.3
20260830210616 44 0 3.0 4.0 0.00 0.00 0.00 84 1023.2
20260830205616 45 0 1.0 2.0 0.00 0.00 0.00 84 1022.9
20260830204637 44 225 1.0 2.0 0.00 0.00 0.00 84 1022.8
20260830203616 44 23 2.0 3.0 0.00 0.00 0.00 85 1022.7
20260830202616 44 45 1.0 2.0 0.00 0.00 0.00 83 1022.6
20260830201616 44 293 1.0 2.0 0.00 0.00 0.00 83 1022.6
20260830200616 45 270 2.0 3.0 0.00 0.00 0.00 80 1022.5
20260830195616 46 270 1.0 3.0 0.00 0.00 0.00 79 1022.4
20260830194616 46 90 3.0 4.0 0.00 0.00 0.00 82 1022.3
20260830193617 46 113 3.0 5.0 0.00 0.00 0.00 82 1022.1
20260830192616 46 23 1.0 3.0 0.00 0.00 0.00 82 1022.2
20260830191616 44 90 3.0 7.0 0.00 0.00 0.00 84 1022.2
20260830190616 45 90 3.0 5.0 0.00 0.00 0.00 85 1022.3
20260830185616 43 23 1.0 1.0 0.00 0.00 0.00 85 1022.3
20260830184617 43 338 1.0 3.0 0.00 0.00 0.00 85 1022.4
20260830183616 43 23 1.0 2.0 0.00 0.00 0.00 85 1022.3
20260830182616 43 0 2.0 3.0 0.00 0.00 0.00 84 1022.2
20260830181616 44 45 3.0 4.0 0.00 0.00 0.00 84 1022.3
20260830180617 44 45 3.0 3.0 0.00 0.00 0.00 83 1022.3
20260830175637 44 338 2.0 3.0 0.00 0.00 0.00 83 1022.3
20260830174616 44 293 2.0 4.0 0.00 0.00 0.00 83 1022.2
20260830173636 44 315 1.0 2.0 0.00 0.00 0.00 82 1022.2
20260830172616 45 0.0 1.0 0.00 0.00 0.00 81 1022.3
20260830171616 45 293 2.0 3.0 0.00 0.00 0.00 80 1022.3
20260830170616 46 45 1.0 3.0 0.00 0.00 0.00 78 1022.2
20260830165616 47 315 1.0 1.0 0.00 0.00 0.00 77 1022.1
20260830164616 47 338 1.0 1.0 0.00 0.00 0.00 79 1022.2
20260830163616 45 0 2.0 2.0 0.00 0.00 0.00 80 1022.4
20260830162616 46 0 1.0 2.0 0.00 0.00 0.00 78 1022.6
20260830161616 47 0.0 1.0 0.00 0.00 0.00 77 1022.7
20260830160616 47 90 1.0 2.0 0.00 0.00 0.00 78 1022.8
20260830155616 46 0 1.0 3.0 0.00 0.00 0.00 78 1022.7
20260830154636 47 90 2.0 3.0 0.00 0.00 0.00 75 1022.6
20260830153636 49 90 1.0 2.0 0.00 0.00 0.00 74 1022.7
20260830152616 48 90 1.0 2.0 0.00 0.00 0.00 74 1022.8
20260830151618 49 68 1.0 2.0 0.00 0.00 0.00 73 1023.0
20260830150618 49 0.0 1.0 0.00 0.00 0.00 73 1023.1
20260830145618 49 113 2.0 3.0 0.00 0.00 0.00 72 1022.9
20260830144618 50 113 1.0 2.0 0.00 0.00 0.00 71 1022.7
20260830143618 51 113 2.0 3.0 0.00 0.00 0.00 68 1022.7
20260830142618 50 45 2.0 4.0 0.00 0.00 0.00 69 1022.7
20260830141618 51 0.0 2.0 0.00 0.00 0.00 69 1022.5
20260830140658 51 23 2.0 3.0 0.00 0.00 0.00 68 1022.5
20260830135617 51 315 2.0 3.0 0.00 0.00 0.00 68 1022.7
20260830134617 51 338 3.0 5.0 0.00 0.00 0.00 69 1022.7
20260830133618 50 315 2.0 4.0 0.00 0.00 0.00 71 1022.6
20260830132617 50 0 1.0 2.0 0.00 0.00 0.00 71 1022.6
20260830131617 50 315 2.0 4.0 0.00 0.00 0.00 73 1022.4
20260830130618 49 293 3.0 6.0 0.00 0.00 0.00 76 1022.6
20260830125617 47 315 4.0 7.0 0.00 0.00 0.00 80 1022.6
20260830124617 47 315 3.0 5.0 0.00 0.00 0.00 78 1022.9
20260830123617 48 315 2.0 3.0 0.00 0.00 0.00 77 1023.1
20260830122618 48 45 2.0 3.0 0.00 0.00 0.00 76 1023.1
20260830121637 49 338 2.0 3.0 0.00 0.00 0.00 75 1022.8
20260830120638 50 293 2.0 3.0 0.00 0.00 0.00 73 1022.8
20260830115617 52 225 1.0 2.0 0.00 0.00 0.00 69 1022.8
20260830114617 52 180 3.0 4.0 0.00 0.00 0.00 69 1022.7
20260830113618 52 180 2.0 4.0 0.00 0.00 0.00 69 1022.8
20260830112618 52 158 1.0 3.0 0.00 0.00 0.00 70 1022.7
20260830111637 52 180 1.0 2.0 0.00 0.00 0.00 70 1022.7
20260830110617 52 0.0 1.0 0.00 0.00 0.00 70 1022.7
20260830105617 52 248 2.0 5.0 0.00 0.00 0.00 70 1022.6
20260830104617 53 158 2.0 3.0 0.00 0.00 0.00 70 1022.7
20260830103738 53 158 1.0 2.0 0.00 0.00 0.00 70 1022.6
20260830102617 52 158 1.0 2.0 0.00 0.00 0.00 71 1022.4
20260830101617 53 135 1.0 2.0 0.00 0.00 0.00 71 1022.3
20260830100637 53 158 1.0 2.0 0.00 0.00 0.00 71 1022.4
20260830095617 53 135 3.0 7.0 0.00 0.00 0.00 71 1022.1
20260830094637 54 135 2.0 7.0 0.00 0.00 0.00 70 1022.2
20260830093617 55 158 2.0 4.0 0.00 0.00 0.00 69 1022.1
20260830092638 55 248 1.0 2.0 0.00 0.00 0.00 68 1022.1
20260830091617 55 158 2.0 4.0 0.00 0.00 0.00 67 1022.1
20260830090617 55 180 1.0 3.0 0.00 0.00 0.00 67 1021.8
20260830085617 56 158 1.0 3.0 0.00 0.00 0.00 64 1021.8
20260830084617 57 180 2.0 4.0 0.00 0.00 0.00 63 1021.8
20260830083617 57 270 2.0 3.0 0.00 0.00 0.00 61 1021.6
20260830082617 57 203 3.0 5.0 0.00 0.00 0.00 61 1021.4
20260830081618 57 180 2.0 6.0 0.00 0.00 0.00 61 1021.2
20260830080617 57 225 2.0 4.0 0.00 0.00 0.00 61 1021.1
20260830075618 58 180 2.0 4.0 0.00 0.00 0.00 60 1021.2
20260830074637 59 203 2.0 4.0 0.00 0.00 0.00 59 1021.3
20260830073617 59 203 3.0 6.0 0.00 0.00 0.00 59 1021.2
20260830072638 59 270 2.0 3.0 0.00 0.00 0.00 58 1021.0
20260830071617 60 293 2.0 4.0 0.00 0.00 0.00 56 1020.9
20260830070617 61 248 1.0 3.0 0.00 0.00 0.00 55 1020.9
20260830065617 62 248 4.0 10.0 0.00 0.00 0.00 53 1020.8
20260830064617 63 225 2.0 4.0 0.00 0.00 0.00 52 1020.7